Retour au catalogue

STARLINK-3940

ActifCommunicationsVLEO
NORAD 52540·PAYLOAD·🇺🇸 United States

Lancé May 13, 2022 depuis Vandenberg Space Force Base

Loading…

Prochains Passages (prochaines 24 heures)

TLE

FraisSource: CelesTrak SupGP

Époque: Sep 15, 2026, 02:38 UTC

1 52540C 22051H   26258.11020833  .00042174  00000+0  12462-2 0  2589
2 52540  53.1586 347.2589 0001200  84.7693 354.2443 15.34364202    10

Suivez STARLINK-3940 en temps réel avec AllMySat

Download on the App Store